Regional Weather Roundup
Issued by NWS

Home | Current Version | Previous Version | Text Only | Print | Product List | Glossary Off
Versions: 1 2 3 4 5 6 7 8 9 10 11 12 13 14 15 16 17 18 19 20 21 22 23 24 25 26 27 28 29 30 31 32 33 34 35 36 37 38 39 40 41 42 43 44 45 46 47 48 49 50

000
ASUS43 KDTX 262210
RWRMI
MICHIGAN HOURLY REGIONAL WEATHER ROUNDUP
NATIONAL WEATHER SERVICE DETROIT/PONTIAC MI
500 PM EST WED NOV 26 2014

NOTE: "FAIR" INDICATES FEW OR NO CLOUDS BELOW 12,000 FEET WITH NO
SIGNIFICANT WEATHER AND/OR OBSTRUCTION TO VISIBILITY.

MIZ047>049-052>055-059>063-066>070-074>076-081>083-262300-
SOUTHEAST LOWER MICHIGAN

CITY           SKY/WX    TMP DP  RH WIND       PRES   REMARKS
ADRIAN         CLOUDY    31  23  72 N6        30.10F WCI  25
ALMA           CLOUDY    29  23  76 CALM      30.14S
ANN ARBOR      CLOUDY    32  24  72 N5        30.10S WCI  27
BAD AXE        CLOUDY    30  27  88 NW7       30.13S WCI  23
CARO           CLOUDY    30  23  74 N5        30.12S WCI  25
DETROIT CITY   CLOUDY    36  23  59 N6        30.10R WCI  31
DETROIT        CLOUDY    33  24  69 NW6       30.11R WCI  28
FLINT          CLOUDY    33  22  63 N7        30.12R WCI  27
GROSSE ILE     CLOUDY    34  27  75 N5        30.09R WCI  30
HILLSDALE      CLOUDY    30  23  77 CALM      30.08S
HOWELL         CLOUDY    31  23  72 NW6       30.10S WCI  25

CITY           SKY/WX    TMP DP  RH WIND       PRES   REMARKS
JACKSON        CLOUDY    30  23  75 CALM      30.10R
LAMBERTVILLE   CLOUDY    34  27  75 N5        30.10S WCI  30
LANSING        FLURRIES  31  20  63 CALM      30.12F
LAPEER         CLOUDY    31  24  73 N3        30.11S
MASON          CLOUDY    30  23  74 N5        30.10F WCI  25
MONROE         CLOUDY    34  27  75 CALM      30.09R
MT. CLEMENS    CLOUDY    33  25  71 N6        30.08R WCI  28
PONTIAC        CLOUDY    32  21  64 N3        30.09R
PORT HOPE        N/A     32  28  85 NW7       30.11F WCI  26
PORT HURON     CLOUDY    32  25  74 N5        30.10S WCI  27
TRI CITIES     FLURRIES  32  22  66 N6        30.15S WCI  26
TROY           CLOUDY    35  23  61 NW6       30.11S WCI  30
SAGINAW HB     CLOUDY    32  25  74 N3        30.14S
$$
MIZ043>046-050>051-056>058-064>065-071>073-077>080-262300-
SOUTHWEST LOWER MICHIGAN

CITY           SKY/WX    TMP DP  RH WIND       PRES   REMARKS
BATTLE CREEK   CLOUDY    29  22  75 N3        30.10F
BENTON HARBOR  CLOUDY    27  20  75 E5        30.13R WCI  22
BIG RAPIDS     CLOUDY    29  24  82 CALM      30.12S
COLDWATER      CLOUDY    31  22  69 CALM      30.10S
FREMONT        CLOUDY    29  24  80 CALM      30.12F
HOLLAND        CLOUDY    31  22  69 E6        30.13S WCI  25
GRAND RAPIDS   CLOUDY    29  21  72 E6        30.12F WCI  23
IONIA          CLOUDY    30  23  74 CALM      30.11F
KALAMAZOO      CLOUDY    29  20  69 N3        30.11F
LUDINGTON      CLOUDY    29  27  91 CALM      30.14S
MARSHALL       LGT SNOW  28  24  88 NW3       30.10S
MOUNT PLEASANT CLOUDY    29  23  78 N5        30.13F WCI  24
MUSKEGON       CLOUDY    31  22  69 E6        30.14S WCI  25
SOUTH HAVEN    PTCLDY    29  22  74 SE5       30.12S WCI  24
$$
MIZ016>042-262300-
NORTHERN LOWER MICHIGAN

CITY           SKY/WX    TMP DP  RH WIND       PRES   REMARKS
ALPENA         CLOUDY    27  23  85 NW3       30.16R
BEAVER ISLAND  CLOUDY    29  25  86 NW5       30.15R WCI  24
BELLAIRE       CLOUDY    28  24  84 CALM      30.17R
CADILLAC       FLURRIES  26  23  88 E3        30.10S
CHARLEVOIX     CLOUDY    27  23  85 SE5       30.18R WCI  22
FRANKFORT      CLOUDY    29  26  89 CALM      30.15R
GAYLORD        CLOUDY    25  19  78 CALM      30.12R
GRAYLING       CLOUDY    28  25  88 CALM      30.13S
HARBOR SPRINGS CLOUDY    28  22  79 CALM      30.16R
HOUGHTON LAKE  CLOUDY    26  18  71 CALM      30.13S
MANISTEE       CLOUDY    28  25  86 SE3       30.15S
OSCODA         LGT SNOW  28  27  93 NW5       30.15R WCI  23
PELLSTON       CLOUDY    27  22  81 CALM      30.16R
ROGERS CITY    CLOUDY    27  24  90 CALM      30.17S
TRAVERSE CITY  CLOUDY    29  24  82 CALM      30.15R
$$
MIZ007>008-015-262300-
EASTERN UPPER MICHIGAN

CITY           SKY/WX    TMP DP  RH WIND       PRES   REMARKS
KINROSS        CLOUDY    25  25 100 E7        30.15S WCI  17
MACKINAC ISLAN CLOUDY    28  21  75 S5        30.15S WCI  23
NEWBERRY       CLOUDY    25  22  88 SW5       30.14S WCI  19
S. S. MARIE    LGT SNOW  26  23  88 E6        30.17R FOG     WCI  19
MUNISING         N/A     27  18  69 S3        30.14S
$$
MIZ004>006-011>014-085-262300-
CENTRAL UPPER MICHIGAN

CITY           SKY/WX    TMP DP  RH WIND       PRES   REMARKS
MANISTIQUE     PTCLDY    24  20  83 CALM      30.15R
ESCANABA       CLOUDY    25  14  63 CALM      30.16R
MENOMINEE      CLOUDY    23  16  74 NW3       30.17S
SAWYER-GWINN   CLOUDY    23  18  80 W3        30.11R
$$
MIZ001>003-009>011-084-262300-
WESTERN UPPER MICHIGAN

CITY           SKY/WX    TMP DP  RH WIND       PRES   REMARKS
IRON MOUNTAIN  CLOUDY    23  17  78 W3        30.12R
HOUGHTON       LGT SNOW  21  15  78 N13G21    30.14R WCI   9
COPPER HARBOR    N/A     26  20  77 NE18      30.17R WCI  13
IRONWOOD       CLOUDY    23  21  93 NW9       30.14R VSB 1/2 WCI  13
$$

ABBREVIATIONS USED IN REMARKS
   TC - TEMPERATURE IN CELSIUS
  WCI - WIND CHILL INDEX
   HX - HEAT INDEX
  VSB - VISIBILITY




USA.gov is the U.S. government's official web portal to all federal, state and local government web resources and services.